STARLINK-4605, 53616

Orbit data source: Space-Track

STARLINK-4605, 53616 is a payload satellite owned by SpaceX/Seattle (US) in LEO that was launched on Sun, 28 Aug 2022 UTC via an FALCON 9 launch vehicle from the Air Force Eastern Test Range (AFETR). Payload-class satellites include a variety of spacecraft equipped with specific instruments for various scientific and technological missions. These include communications satellites like Starlink; space stations such as the ISS; scientific satellites like the Hubble; Earth observation satellites from companies like Planet Labs, Umbra, and HawkEye 360; GPS; miniature CubeSats for education and research; and military/defense satellites.

Loading next visibility...
Identifier
53616, 2022-104AE
Orbit
LEO
Country
Flag of USUS
Related business
Manufacturer
SpaceX/Seattle
Mission
Operational Commercial Communications
Bus & Motor
STARLINK, Unknown motor
Mass
300 kg wet, ~290 kg dry
Launch date (UTC)
2022-08-28 (3 years ago)
Launch vehicle
FALCON 9
Launch site
Air Force Eastern Test Range (AFETR)
Object type
Payload
Rocket body
Debris
Shape & HBR
Box + 1 Pan, 10.1 m
Radar Cross Section
13.562 m², Large (>1 m²)

Expand to show TLE details & history
Last TLE update: 16 hours ago

TLE from 16 hours ago
0 STARLINK-4605
1 53616U 22104AE  26036.62457257  .00001555  00000-0  11577-3 0  9995
2 53616  53.2179   7.9401 0001217  84.2430 275.8701 15.08845458191046
Epoch: 2026-02-05T14:59Z
TLE epoch observation values (Epoch: 2026-02-05T14:59:23.070Z)
Latitude
0.00001°
Longitude
7.31986°
Altitude
540.538 km
Speed
7.593 km/s
True Right ascension
00h 31m 45s
True Declination
0° 00' 00"
Sunlit
Object was in daylight at epoch
Visualization orbit readout
Latitude
Unknown
Longitude
Unknown
Altitude
Unknown
Speed
Unknown
Apparent Right ascension
Unknown
Apparent Declination
Unknown
Sunlit
N/A
Visualization observer readout
Local Sidereal Time
09:05:08
Azimuth
Unknown
Elevation
Unknown
Doppler factor
Unknown
Orbital elements
Apogee altitude
540.813 km
Perigee altitude
539.13 km
Semi-major axis
6,918.109 km
Eccentricity
0.00012
Inclination
53.2179°
RAAN
7.9401°
Arg. of periapsis
84.243°
True anomaly
275.85623°
Mean anomaly
275.8701°
Eccentric anomaly
275.86316°
Mean motion
3.77192 °/min
Orbital period
95.44 mins
BSTAR
0.00011577
Loading maneuver chart data...
Computing Atmospheric mass density...
Loading historical data...
Loading historical data...
Loading historical data...
Loading historical data...
Loading historical data...
Loading historical data...
Loading historical data...

Documentation

Showing up to 5 results
|